{"data":{"norad_id":54244,"intl_designator":"2022-153B","name":"GALAXY 32 (G-32)","alt_names":[],"object_type":"PAYLOAD","status":"ACTIVE","operator":null,"country":"ITSO","launch_date":"2022-11-12","launch_site_code":"AFETR","launch_vehicle":null,"mission":null,"orbit_class":"UNKNOWN","rcs_meters":null,"size_class":null,"mass_kg":null,"dimensions":null,"purposes":["comms"],"wikipedia_slug":null,"has_3d_model":false,"image_url":null,"decayed_at":null,"tle_current":{"epoch":"2026-05-25T01:56:38.627232Z","epoch_age_seconds":68372,"freshness":"FRESH","line1":"1 54244U 22153B   26145.08100263 -.00000177  00000+0  00000+0 0  9994","line2":"2 54244   0.0090 321.8765 0002507  66.2969 152.6646  1.00271557 12915","mean_motion":1.00271557,"eccentricity":0.0002507,"inclination_deg":0.009,"raan_deg":321.8765,"arg_perigee_deg":66.2969,"mean_anomaly_deg":152.6646,"bstar":0,"rev_number":1291,"period_min":1436.1001694628,"perigee_km":35776.088163662,"apogee_km":35797.229592315,"semimajor_km":42164.795877988,"source":"CELESTRAK","updated_at":"2026-05-25T13:38:14.339252Z"}}}